Location: Emory University Observatory
(33.7903°N, 84.3267°W)
Time: 16:39:32
(UTC-05:00)

Tiangong 2 - Pass Details

Date: 14 October 2017
Orbit: 386 x 390 km, 42.8° (Epoch: 12 December)

Event Time Altitude Azimuth Distance (km) Brightness Sun altitude
Exits shadow 06:34:02 13° 332° (NNW) 1,246 3.4 -14.8°
Maximum altitude 06:35:21 16° 1° (N) 1,117 3.4 -14.5°
Drops below altitude 10° 06:37:26 10° 42° (NE) 1,422 4.5 -14.1°
Sets 06:40:05 0° 65° (ENE) 2,278 6.2 -13.6°
